{"data":{"norad_id":64860,"epoch":"2026-09-20T14:12:24.187104Z","epoch_age_seconds":116349,"freshness":"FRESH","line1":"1 64860U 25152U   26263.59194661  .00010902  00000+0  33939-3 0  9990","line2":"2 64860  97.2854 114.0917 0002009  91.3284 268.8189 15.33456292 64835","mean_motion":15.33456292,"eccentricity":0.0002009,"inclination_deg":97.2854,"raan_deg":114.0917,"arg_perigee_deg":91.3284,"mean_anomaly_deg":268.8189,"bstar":0.00033939,"rev_number":6483,"period_min":93.905513154333,"perigee_km":464.13468903945,"apogee_km":466.88446623434,"semimajor_km":6843.6465776369,"source":"CELESTRAK","updated_at":"2026-09-21T09:00:35.452231Z"}}